Fort Hood, TX

11:03 AM CST on December 11, 2019 (GMT -0600)
Killeen-Fort Hood Regional

Weather History for KGRK - September, 2019

Change the Weather History Date:

Saturday, September 21, 2019

  Actual Average Record
Temperature  
Mean Temperature 84 °F -  
Max Temperature 93 °F 85 °F 96 °F (2005)
Min Temperature 74 °F 64 °F 60 °F (1999)
Cooling Degree Days 18    
Growing Degree Days 34 (Base 50)    
Moisture  
Dew Point 70 °F    
Average Humidity 71    
Maximum Humidity 94    
Minimum Humidity 40    
Precipitation  
Precipitation 0.00 in - - ()
Sea Level Pressure  
Sea Level Pressure 30.00 in    
Wind  
Wind Speed 13 mph (SE)    
Max Wind Speed 21 mph    
Max Gust Speed 26 mph    
Visibility 10 miles    
Events      
Averages and records for this station are not official NWS values.
T = Trace of Precipitation, MM = Missing Value Source: NWS Daily Summary

Daily Weather History Graph

Daily Weather History Graph

Search for Another Location

Airport or City:

Astronomy

Sep. 21, 2019 Rise Set
Actual Time 7:18 AM CDT 7:29 PM CDT
Civil Twilight 6:54 AM CDT 7:53 PM CDT
Nautical Twilight 6:26 AM CDT 8:21 PM CDT
Astronomical Twilight 5:58 AM CDT 8:50 PM CDT
Moon No Moon Rise 2:01 PM CDT (9/21)
Length of Visible Light 12h 58m
Length of Day
12h 10m
Waning Gibbous, 54% of the Moon is Illuminated
Sep 21
Waning Gibbous
Sep 21
Last Quarter
Sep 28
New
Oct 5
First Quarter
Oct 13
Full

Hourly Weather History & Observations

Time (CDT) Temp. Heat Index Dew Point Humidity Pressure Visibility Wind Dir Wind Speed Gust Speed Precip Events Conditions
12:18 AM 78.8 °F - 71.6 °F 78% 29.99 in 10.0 mi SE 15.0 mph - N/A   Overcast
12:58 AM 78.6 °F - 72.0 °F 80% 29.99 in 10.0 mi SE 18.4 mph - N/A   Overcast
1:58 AM 77.5 °F - 72.0 °F 83% 29.99 in 10.0 mi SE 19.6 mph - N/A   Mostly Cloudy
2:58 AM 77.5 °F - 72.3 °F 84% 29.98 in 10.0 mi SE 16.1 mph - N/A   Overcast
3:13 AM 77.0 °F - 71.6 °F 83% 29.98 in 10.0 mi SE 11.5 mph - N/A   Overcast
3:58 AM 77.0 °F - 72.1 °F 85% 29.98 in 10.0 mi SE 13.8 mph - N/A   Overcast
4:18 AM 77.0 °F - 71.6 °F 83% 29.98 in 10.0 mi SE 9.2 mph - N/A   Mostly Cloudy
4:28 AM 77.0 °F - 71.6 °F 83% 29.99 in 10.0 mi SE 10.4 mph - N/A   Scattered Clouds
4:43 AM 75.2 °F - 71.6 °F 89% 29.99 in 10.0 mi SE 9.2 mph - N/A   Mostly Cloudy
4:48 AM 75.2 °F - 71.6 °F 89% 29.99 in 10.0 mi SE 8.1 mph - N/A   Mostly Cloudy
4:58 AM 75.7 °F - 71.6 °F 87% 30.00 in 10.0 mi SE 6.9 mph - N/A   Mostly Cloudy
5:18 AM 75.2 °F - 71.6 °F 89% 30.00 in 10.0 mi SE 5.8 mph - N/A   Scattered Clouds
5:58 AM 74.8 °F - 71.8 °F 90% 30.01 in 10.0 mi SE 6.9 mph - N/A   Partly Cloudy
6:13 AM 75.2 °F - 71.6 °F 89% 30.01 in 10.0 mi SE 5.8 mph - N/A   Mostly Cloudy
6:18 AM 75.2 °F - 71.6 °F 89% 30.01 in 10.0 mi SE 8.1 mph - N/A   Mostly Cloudy
6:38 AM 75.2 °F - 71.6 °F 89% 30.01 in 10.0 mi SE 9.2 mph - N/A   Mostly Cloudy
6:48 AM 75.2 °F - 71.6 °F 89% 30.01 in 10.0 mi SE 9.2 mph - N/A   Scattered Clouds
6:58 AM 75.0 °F - 72.1 °F 91% 30.02 in 10.0 mi SE 9.2 mph - N/A   Partly Cloudy
7:53 AM 75.2 °F - 73.4 °F 94% 30.02 in 10.0 mi SE 8.1 mph - N/A   Mostly Cloudy
7:58 AM 74.8 °F - 72.7 °F 93% 30.02 in 10.0 mi SE 9.2 mph - N/A   Mostly Cloudy
8:58 AM 78.1 °F - 73.0 °F 84% 30.03 in 10.0 mi SE 13.8 mph - N/A   Overcast
9:33 AM 80.6 °F 84.6 °F 71.6 °F 74% 30.04 in 10.0 mi SE 15.0 mph - N/A   Mostly Cloudy
9:58 AM 80.6 °F 84.6 °F 71.8 °F 74% 30.05 in 10.0 mi SE 13.8 mph - N/A   Overcast
10:18 AM 82.4 °F 87.2 °F 71.6 °F 70% 30.05 in 10.0 mi SE 19.6 mph - N/A   Overcast
10:23 AM 82.4 °F 87.2 °F 71.6 °F 70% 30.06 in 10.0 mi SSE 15.0 mph - N/A   Overcast
10:28 AM 80.6 °F 85.4 °F 73.4 °F 79% 30.06 in 10.0 mi South 8.1 mph - N/A   Overcast
10:43 AM 82.4 °F 87.2 °F 71.6 °F 70% 30.05 in 10.0 mi SSE 15.0 mph - N/A   Mostly Cloudy
10:58 AM 84.2 °F 88.4 °F 69.8 °F 62% 30.05 in 10.0 mi SSE 17.3 mph - N/A   Mostly Cloudy
11:03 AM 86.0 °F 90.4 °F 69.8 °F 58% 30.05 in 10.0 mi SE 17.3 mph - N/A   Mostly Cloudy
11:13 AM 86.0 °F 90.4 °F 69.8 °F 58% 30.05 in 10.0 mi SSE 16.1 mph 23.0 mph N/A   Mostly Cloudy
11:18 AM 86.0 °F 90.4 °F 69.8 °F 58% 30.05 in 10.0 mi SE 20.7 mph 25.3 mph N/A   Mostly Cloudy
11:23 AM 84.2 °F 88.4 °F 69.8 °F 62% 30.05 in 10.0 mi SE 18.4 mph 25.3 mph N/A   Mostly Cloudy
11:28 AM 84.2 °F 88.4 °F 69.8 °F 62% 30.05 in 10.0 mi SE 19.6 mph - N/A   Overcast
11:33 AM 86.0 °F 90.4 °F 69.8 °F 58% 30.05 in 10.0 mi SE 17.3 mph - N/A   Overcast
11:58 AM 85.6 °F 90.1 °F 69.8 °F 59% 30.04 in 10.0 mi SSE 12.7 mph - N/A   Overcast
12:53 PM 84.2 °F 90.9 °F 73.4 °F 70% 30.03 in 10.0 mi SSW 3.5 mph - N/A   Mostly Cloudy
12:58 PM 84.0 °F 89.9 °F 72.3 °F 68% 30.02 in 10.0 mi SSW 5.8 mph - N/A   Mostly Cloudy
1:33 PM 89.6 °F 93.4 °F 68.0 °F 49% 30.00 in 10.0 mi ESE 15.0 mph - N/A   Scattered Clouds
1:58 PM 90.1 °F 94.0 °F 67.8 °F 48% 29.99 in 10.0 mi SSE 18.4 mph 21.9 mph N/A   Scattered Clouds
2:58 PM 93.0 °F 95.5 °F 65.5 °F 40% 29.96 in 10.0 mi SE 13.8 mph 20.7 mph N/A   Partly Cloudy
3:01 PM 93.2 °F 96.2 °F 66.2 °F 41% 29.96 in 10.0 mi SSE 13.8 mph - N/A   Scattered Clouds
3:58 PM 91.4 °F 93.6 °F 65.1 °F 42% 29.94 in 10.0 mi SSE 15.0 mph - N/A   Partly Cloudy
4:58 PM 90.7 °F 92.1 °F 64.2 °F 41% 29.92 in 10.0 mi SE 13.8 mph 23.0 mph N/A   Partly Cloudy
5:58 PM 92.1 °F 94.0 °F 64.9 °F 40% 29.91 in 10.0 mi ESE 15.0 mph 23.0 mph N/A   Mostly Cloudy
6:58 PM 88.7 °F 91.1 °F 66.2 °F 47% 29.92 in 10.0 mi ESE 18.4 mph - N/A   Partly Cloudy
7:58 PM 84.9 °F 88.2 °F 68.0 °F 57% 29.93 in 10.0 mi SE 18.4 mph 26.5 mph N/A   Clear
8:58 PM 82.8 °F 85.3 °F 67.3 °F 59% 29.95 in 10.0 mi SE 17.3 mph - N/A   Clear
9:58 PM 81.3 °F 84.6 °F 69.3 °F 67% 29.97 in 10.0 mi SE 16.1 mph - N/A   Clear
10:58 PM 79.7 °F - 69.8 °F 72% 29.98 in 10.0 mi SE 15.0 mph - N/A   Clear
11:58 PM 78.3 °F - 70.0 °F 76% 29.98 in 10.0 mi SE 15.0 mph - N/A   Clear